Simultaneous Nadir Overpasses (SNOs) Predictions

Prediction of SNOs between GOES-15 and NOAA-20 Satellite Orbit:

Table of predicted SNOs for the next 14.0 days since TLE Epoch: 12/4/2021
Index Date Time (GOES-15) GOES-15 Lat,Lon NOAA-20 Lat,Lon Distance(km) Time Diff (sec)
1 12/05/2021 10:11:06 0.01,-128.07 0.88,-131.84 429.89 80
2 12/06/2021 09:55:01 0.02,-128.04 -0.14,-127.30 84.00 80
3 12/08/2021 21:55:31 -0.01,-127.97 -0.01,-128.07 10.74 80
4 12/11/2021 09:58:31 -0.01,-127.89 0.19,-128.80 102.89 80
5 12/12/2021 09:42:26 0.01,-127.86 -0.83,-124.26 410.92 80
6 12/13/2021 22:01:40 0.02,-127.82 -0.39,-129.55 197.68 80
7 12/14/2021 21:45:35 0.00,-127.79 0.63,-125.01 316.07 80
8 12/16/2021 10:04:41 -0.02,-127.73 0.56,-130.27 290.40 80
9 12/17/2021 09:48:36 -0.01,-127.69 -0.46,-125.74 222.85 80
